Sarah Schulte — 5BPA3 — position and weather

sailwx.info

Track history (hours):
 
Tides and Currents Weather Stations Pressure Air Temp Water Temp Dewpoint Dewpoint Depression Visibility Wind Speed Wind Dir Waves Ship Positions

Sarah Schulte

Last reported at 2014-Oct-28 16:25 UTC. Time now 2014-Oct-31 05:34 UTC.
Position N 22°19' E 114°07'.

Length 222 m; draft 11.7 m.

Type: Ship. MMSI: 210409000.

Date/timePositionNaut miles runAvg speedWind from/ knotsBaromVisibWave heightAir tempDewpointWater temp
2014-Oct-28 16:25N 22°19' E 114°07'0 0.4
2014-Oct-28 15:23N 22°20' E 114°07'0 0.0
2014-Oct-28 14:20N 22°20' E 114°07'0 0.0
2014-Oct-28 13:11N 22°20' E 114°07'0 0.0
2014-Oct-28 12:31N 22°20' E 114°07'0 0.0
2014-Oct-28 11:32N 22°20' E 114°07'0 0.0
2014-Oct-28 10:27N 22°20' E 114°07'0 0.0
2014-Oct-28 09:28N 22°20' E 114°07'0 0.0
2014-Oct-28 08:29N 22°20' E 114°07'0 0.0
2014-Oct-28 07:32N 22°20' E 114°07'0 0.0
2014-Oct-28 06:10N 22°20' E 114°07'0 0.0
2014-Oct-28 05:32N 22°20' E 114°07'0 0.0
2014-Oct-28 04:20N 22°20' E 114°07'0 0.0
2014-Oct-28 03:32N 22°20' E 114°07'0 0.0
2014-Oct-28 02:04N 22°20' E 114°07'0 0.0
2014-Oct-28 01:33N 22°20' E 114°07'0 0.0
2014-Oct-28 00:22N 22°20' E 114°07'0 0.0
2014-Oct-27 23:33N 22°20' E 114°07'253 6.4
2014-Oct-26 08:08N 23°60' E 118°20'1113.0
2014-Oct-26 07:16N 24°11' E 118°18'1012.0
2014-Oct-26 06:28N 24°17' E 118°11'9 9.8
2014-Oct-26 05:32N 24°25' E 118°05'6 5.8
2014-Oct-26 04:33N 24°31' E 118°05'0 0.0
2014-Oct-26 03:33N 24°31' E 118°05'0 0.0
2014-Oct-26 02:33N 24°31' E 118°05'0 0.0
2014-Oct-26 01:33N 24°31' E 118°05'0 0.0
2014-Oct-26 00:33N 24°31' E 118°05'0 0.0
2014-Oct-25 23:30N 24°31' E 118°05'0 0.0
2014-Oct-25 22:32N 24°31' E 118°05'6 5.8
2014-Oct-25 21:32N 24°25' E 118°05'10 9.5
2014-Oct-25 20:30N 24°17' E 118°11'1110.7
2014-Oct-25 19:25N 24°09' E 118°21'0 0.2
2014-Oct-25 18:29N 24°09' E 118°21'2 1.5
2014-Oct-25 17:20N 24°08' E 118°19'1 1.4
2014-Oct-25 16:32N 24°09' E 118°20'6 0.6
2014-Oct-25 05:10N 24°15' E 118°23'0 0.0
2014-Oct-25 02:32N 24°15' E 118°23'0 0.1
2014-Oct-25 01:29N 24°15' E 118°23'0 0.1
2014-Oct-24 23:25N 24°15' E 118°23'0 0.0
2014-Oct-24 16:29N 24°15' E 118°23'0 0.0
2014-Oct-24 09:23N 24°15' E 118°23'18 9.6
2014-Oct-24 07:28N 24°22' E 118°41'  
Track history (hours):
 
Tides and Currents Weather Stations Pressure Air Temp Water Temp Dewpoint Dewpoint Depression Visibility Wind Speed Wind Dir Waves Ship Positions

Sarah Schulte

Last reported at 2014-Oct-28 16:25 UTC. Time now 2014-Oct-31 05:34 UTC.
Position N 22°19' E 114°07'.

Length 222 m; draft 11.7 m.

Type: Ship. MMSI: 210409000.

Date/timePositionNaut miles runAvg speedWind from/ knotsBaromVisibWave heightAir tempDewpointWater temp
2014-Oct-28 16:25N 22°19' E 114°07'0 0.4
2014-Oct-28 15:23N 22°20' E 114°07'0 0.0
2014-Oct-28 14:20N 22°20' E 114°07'0 0.0
2014-Oct-28 13:11N 22°20' E 114°07'0 0.0
2014-Oct-28 12:31N 22°20' E 114°07'0 0.0
2014-Oct-28 11:32N 22°20' E 114°07'0 0.0
2014-Oct-28 10:27N 22°20' E 114°07'0 0.0
2014-Oct-28 09:28N 22°20' E 114°07'0 0.0
2014-Oct-28 08:29N 22°20' E 114°07'0 0.0
2014-Oct-28 07:32N 22°20' E 114°07'0 0.0
2014-Oct-28 06:10N 22°20' E 114°07'0 0.0
2014-Oct-28 05:32N 22°20' E 114°07'0 0.0
2014-Oct-28 04:20N 22°20' E 114°07'0 0.0
2014-Oct-28 03:32N 22°20' E 114°07'0 0.0
2014-Oct-28 02:04N 22°20' E 114°07'0 0.0
2014-Oct-28 01:33N 22°20' E 114°07'0 0.0
2014-Oct-28 00:22N 22°20' E 114°07'0 0.0
2014-Oct-27 23:33N 22°20' E 114°07'253 6.4
2014-Oct-26 08:08N 23°60' E 118°20'1113.0
2014-Oct-26 07:16N 24°11' E 118°18'1012.0
2014-Oct-26 06:28N 24°17' E 118°11'9 9.8
2014-Oct-26 05:32N 24°25' E 118°05'6 5.8
2014-Oct-26 04:33N 24°31' E 118°05'0 0.0
2014-Oct-26 03:33N 24°31' E 118°05'0 0.0
2014-Oct-26 02:33N 24°31' E 118°05'0 0.0
2014-Oct-26 01:33N 24°31' E 118°05'0 0.0
2014-Oct-26 00:33N 24°31' E 118°05'0 0.0
2014-Oct-25 23:30N 24°31' E 118°05'0 0.0
2014-Oct-25 22:32N 24°31' E 118°05'6 5.8
2014-Oct-25 21:32N 24°25' E 118°05'10 9.5
2014-Oct-25 20:30N 24°17' E 118°11'1110.7
2014-Oct-25 19:25N 24°09' E 118°21'0 0.2
2014-Oct-25 18:29N 24°09' E 118°21'2 1.5
2014-Oct-25 17:20N 24°08' E 118°19'1 1.4
2014-Oct-25 16:32N 24°09' E 118°20'6 0.6
2014-Oct-25 05:10N 24°15' E 118°23'0 0.0
2014-Oct-25 02:32N 24°15' E 118°23'0 0.1
2014-Oct-25 01:29N 24°15' E 118°23'0 0.1
2014-Oct-24 23:25N 24°15' E 118°23'0 0.0
2014-Oct-24 16:29N 24°15' E 118°23'0 0.0
2014-Oct-24 09:23N 24°15' E 118°23'18 9.6
2014-Oct-24 07:28N 24°22' E 118°41'  

Dump ship's entire track history